| time (UTC) | temp F | wind direction | speed knots | gust knots | rain 1hr in | rain 24hr in | rain mn in | humidity % | barometer mb |
| 20260506145522 | 83 | 164 | 3.5 | 4.3 | 0.00 | 0.00 | 0.00 | 25 | 1000.0 |
| 20260506145026 | 83 | 111 | 5.2 | 7.0 | 0.00 | 0.00 | 0.00 | 26 | 1000.0 |
| 20260506144040 | 84 | 134 | 3.5 | 3.5 | 0.00 | 0.00 | 0.00 | 25 | 1000.0 |
| 20260506143520 | 84 | 202 | 1.7 | 2.6 | 0.00 | 0.00 | 0.00 | 26 | 1000.0 |
| 20260506143020 | 83 | 218 | 6.1 | 8.7 | 0.00 | 0.00 | 0.00 | 25 | 1000.0 |
| 20260506142521 | 83 | 219 | 5.2 | 7.8 | 0.00 | 0.00 | 0.00 | 25 | 1000.0 |
| 20260506142021 | 85 | 210 | 3.5 | 3.5 | 0.00 | 0.00 | 0.00 | 24 | 1000.0 |
| 20260506141521 | 85 | 120 | 2.6 | 2.6 | 0.00 | 0.00 | 0.00 | 24 | 1000.0 |
| 20260506141021 | 84 | 207 | 4.3 | 5.2 | 0.00 | 0.00 | 0.00 | 24 | 1000.0 |
| 20260506140520 | 85 | 214 | 4.3 | 4.3 | 0.00 | 0.00 | 0.00 | 24 | 1000.0 |
| 20260506140021 | 84 | 222 | 3.5 | 4.3 | 0.00 | 0.00 | 0.00 | 24 | 1000.0 |
| 20260506135521 | 84 | 211 | 4.3 | 4.3 | 0.00 | 0.00 | 0.00 | 25 | 1000.0 |
| 20260506135020 | 85 | 229 | 3.5 | 3.5 | 0.00 | 0.00 | 0.00 | 24 | 1000.0 |
| 20260506134521 | 84 | 170 | 5.2 | 7.8 | 0.00 | 0.00 | 0.00 | 25 | 1000.0 |
| 20260506134021 | 84 | 163 | 6.1 | 6.1 | 0.00 | 0.00 | 0.00 | 25 | 1000.0 |
| 20260506133522 | 85 | 98 | 3.5 | 4.3 | 0.00 | 0.00 | 0.00 | 24 | 1000.0 |
| 20260506133021 | 85 | 180 | 7.0 | 7.0 | 0.00 | 0.00 | 0.00 | 24 | 1000.0 |
| 20260506132520 | 85 | 171 | 5.2 | 6.1 | 0.00 | 0.00 | 0.00 | 24 | 1000.0 |
| 20260506132021 | 85 | 201 | 2.6 | 3.5 | 0.00 | 0.00 | 0.00 | 25 | 1000.0 |
| 20260506131521 | 84 | 193 | 9.6 | 13.0 | 0.00 | 0.00 | 0.00 | 24 | 1000.0 |
| 20260506131022 | 85 | 204 | 6.1 | 8.7 | 0.00 | 0.00 | 0.00 | 24 | 1000.0 |
| 20260506130521 | 85 | 132 | 3.5 | 5.2 | 0.00 | 0.00 | 0.00 | 24 | 1000.0 |
| 20260506130021 | 85 | 103 | 3.5 | 4.3 | 0.00 | 0.00 | 0.00 | 24 | 1000.0 |
| 20260506125522 | 85 | 199 | 4.3 | 7.0 | 0.00 | 0.00 | 0.00 | 24 | 1000.0 |
| 20260506125020 | 85 | 162 | 7.8 | 12.2 | 0.00 | 0.00 | 0.00 | 24 | 1000.0 |
| 20260506124521 | 85 | 144 | 7.0 | 8.7 | 0.00 | 0.00 | 0.00 | 24 | 1000.0 |
| 20260506124022 | 85 | 206 | 4.3 | 4.3 | 0.00 | 0.00 | 0.00 | 24 | 1000.0 |
| 20260506123524 | 84 | 190 | 7.0 | 7.8 | 0.00 | 0.00 | 0.00 | 24 | 1000.0 |
| 20260506123022 | 85 | 180 | 5.2 | 6.1 | 0.00 | 0.00 | 0.00 | 25 | 1000.0 |
| 20260506122521 | 86 | 148 | 2.6 | 5.2 | 0.00 | 0.00 | 0.00 | 23 | 1000.0 |
| 20260506122021 | 85 | 132 | 4.3 | 7.8 | 0.00 | 0.00 | 0.00 | 23 | 1000.0 |
| 20260506121520 | 86 | 138 | 1.7 | 5.2 | 0.00 | 0.00 | 0.00 | 23 | 1000.0 |
| 20260506121021 | 85 | 219 | 3.5 | 4.3 | 0.00 | 0.00 | 0.00 | 23 | 1000.0 |
| 20260506120522 | 84 | 129 | 7.0 | 8.7 | 0.00 | 0.00 | 0.00 | 23 | 1000.0 |
| 20260506120021 | 85 | 213 | 5.2 | 5.2 | 0.00 | 0.00 | 0.00 | 23 | 1000.0 |
| 20260506115520 | 84 | 210 | 8.7 | 12.2 | 0.00 | 0.00 | 0.00 | 24 | 1000.0 |
| 20260506115021 | 84 | 214 | 4.3 | 4.3 | 0.00 | 0.00 | 0.00 | 23 | 1000.0 |
| 20260506114521 | 84 | 209 | 5.2 | 5.2 | 0.00 | 0.00 | 0.00 | 24 | 1000.0 |
| 20260506114020 | 85 | 77 | 2.6 | 5.2 | 0.00 | 0.00 | 0.00 | 24 | 1000.0 |
| 20260506113520 | 85 | 168 | 5.2 | 5.2 | 0.00 | 0.00 | 0.00 | 23 | 1000.0 |
| 20260506113020 | 85 | 218 | 3.5 | 4.3 | 0.00 | 0.00 | 0.00 | 24 | 1000.0 |
| 20260506112520 | 83 | 131 | 4.3 | 5.2 | 0.00 | 0.00 | 0.00 | 23 | 1000.0 |
| 20260506112020 | 84 | 181 | 4.3 | 4.3 | 0.00 | 0.00 | 0.00 | 24 | 1000.0 |
| 20260506111520 | 84 | 270 | 4.3 | 6.1 | 0.00 | 0.00 | 0.00 | 23 | 1000.0 |
| 20260506111023 | 85 | 187 | 1.7 | 5.2 | 0.00 | 0.00 | 0.00 | 24 | 1000.0 |
| 20260506110520 | 85 | 115 | 2.6 | 5.2 | 0.00 | 0.00 | 0.00 | 24 | 1000.0 |
| 20260506110021 | 85 | 174 | 3.5 | 4.3 | 0.00 | 0.00 | 0.00 | 24 | 1000.0 |
| 20260506105521 | 84 | 180 | 4.3 | 4.3 | 0.00 | 0.00 | 0.00 | 24 | 1000.0 |
| 20260506105022 | 83 | 122 | 1.7 | 4.3 | 0.00 | 0.00 | 0.00 | 24 | 1000.0 |
| 20260506104522 | 85 | 133 | 1.7 | 3.5 | 0.00 | 0.00 | 0.00 | 24 | 1000.0 |
| 20260506104020 | 83 | 163 | 6.1 | 6.1 | 0.00 | 0.00 | 0.00 | 25 | 1000.0 |
| 20260506103520 | 83 | 61 | 5.2 | 6.1 | 0.00 | 0.00 | 0.00 | 26 | 1000.0 |
| 20260506103022 | 82 | 222 | 7.8 | 8.7 | 0.00 | 0.00 | 0.00 | 26 | 1000.0 |
| 20260506102520 | 83 | 167 | 2.6 | 6.1 | 0.00 | 0.00 | 0.00 | 26 | 1000.0 |
| 20260506102020 | 84 | 232 | 3.5 | 4.3 | 0.00 | 0.00 | 0.00 | 26 | 1001.0 |
| 20260506101520 | 82 | 238 | 3.5 | 4.3 | 0.00 | 0.00 | 0.00 | 26 | 1001.0 |
| 20260506101021 | 83 | 214 | 4.3 | 4.3 | 0.00 | 0.00 | 0.00 | 27 | 1001.0 |
| 20260506100520 | 83 | 221 | 4.3 | 7.8 | 0.00 | 0.00 | 0.00 | 26 | 1001.0 |
| 20260506100022 | 83 | 197 | 4.3 | 8.7 | 0.00 | 0.00 | 0.00 | 28 | 1001.0 |
| 20260506095520 | 82 | 197 | 2.6 | 7.0 | 0.00 | 0.00 | 0.00 | 29 | 1001.0 |
| 20260506095020 | 83 | 114 | 3.5 | 5.2 | 0.00 | 0.00 | 0.00 | 26 | 1001.0 |
| 20260506094521 | 83 | 194 | 2.6 | 3.5 | 0.00 | 0.00 | 0.00 | 29 | 1001.0 |
| 20260506094020 | 83 | 215 | 2.6 | 5.2 | 0.00 | 0.00 | 0.00 | 28 | 1001.0 |
| 20260506093521 | 83 | 222 | 1.7 | 5.2 | 0.00 | 0.00 | 0.00 | 28 | 1001.0 |
| 20260506093020 | 83 | 174 | 3.5 | 4.3 | 0.00 | 0.00 | 0.00 | 29 | 1001.0 |
| 20260506092521 | 82 | 197 | 7.8 | 7.8 | 0.00 | 0.00 | 0.00 | 29 | 1001.0 |
| 20260506092021 | 83 | 167 | 1.7 | 1.7 | 0.00 | 0.00 | 0.00 | 28 | 1001.0 |
| 20260506091520 | 82 | 116 | 1.7 | 2.6 | 0.00 | 0.00 | 0.00 | 29 | 1001.0 |
| 20260506091020 | 82 | 181 | 2.6 | 2.6 | 0.00 | 0.00 | 0.00 | 29 | 1001.0 |
| 20260506090521 | 82 | 214 | 2.6 | 2.6 | 0.00 | 0.00 | 0.00 | 29 | 1001.0 |
| 20260506090020 | 83 | 171 | 1.7 | 1.7 | 0.00 | 0.00 | 0.00 | 30 | 1001.0 |
| 20260506085521 | 80 | 123 | 7.0 | 7.8 | 0.00 | 0.00 | 0.00 | 30 | 1001.0 |
| 20260506085021 | 81 | 123 | 1.7 | 2.6 | 0.00 | 0.00 | 0.00 | 29 | 1001.0 |
| 20260506084520 | 79 | 100 | 5.2 | 7.0 | 0.00 | 0.00 | 0.00 | 31 | 1001.0 |
| 20260506084020 | 79 | 217 | 1.7 | 2.6 | 0.00 | 0.00 | 0.00 | 32 | 1001.0 |
| 20260506083520 | 79 | 168 | 4.3 | 6.1 | 0.00 | 0.00 | 0.00 | 32 | 1001.0 |
| 20260506083020 | 78 | 198 | 2.6 | 3.5 | 0.00 | 0.00 | 0.00 | 32 | 1001.0 |
| 20260506082520 | 77 | 100 | 3.5 | 6.1 | 0.00 | 0.00 | 0.00 | 33 | 1001.0 |
| 20260506082020 | 78 | 109 | 2.6 | 4.3 | 0.00 | 0.00 | 0.00 | 33 | 1001.0 |
| 20260506081520 | 77 | 126 | 3.5 | 3.5 | 0.00 | 0.00 | 0.00 | 33 | 1001.0 |
| 20260506081021 | 78 | 140 | 2.6 | 3.5 | 0.00 | 0.00 | 0.00 | 33 | 1001.0 |
| 20260506080520 | 77 | 114 | 1.7 | 1.7 | 0.00 | 0.00 | 0.00 | 33 | 1001.0 |
| 20260506073520 | 76 | 159 | 1.7 | 1.7 | 0.00 | 0.00 | 0.00 | 33 | 1001.0 |
| 20260506073021 | 76 | 156 | 1.7 | 1.7 | 0.00 | 0.00 | 0.00 | 34 | 1001.0 |
| 20260506072520 | 74 | 88 | 0.9 | 2.6 | 0.00 | 0.00 | 0.00 | 36 | 1001.0 |
| 20260506072021 | 73 | 119 | 1.7 | 2.6 | 0.00 | 0.00 | 0.00 | 38 | 1001.0 |
| 20260506071521 | 72 | 95 | 5.2 | 7.0 | 0.00 | 0.00 | 0.00 | 40 | 1001.0 |
| 20260506071020 | 72 | 175 | 1.7 | 1.7 | 0.00 | 0.00 | 0.00 | 38 | 1001.0 |
| 20260506070521 | 71 | 102 | 2.6 | 3.5 | 0.00 | 0.00 | 0.00 | 40 | 1001.0 |
| 20260506062020 | 68 | 161 | 0.9 | 1.7 | 0.00 | 0.00 | 0.00 | 41 | 1002.0 |
| 20260506061521 | 67 | 59 | 0.9 | 1.7 | 0.00 | 0.00 | 0.00 | 43 | 1002.0 |
| 20260506061021 | 65 | 111 | 3.5 | 4.3 | 0.00 | 0.00 | 0.00 | 45 | 1002.0 |
| 20260506060521 | 65 | 103 | 4.3 | 5.2 | 0.00 | 0.00 | 0.00 | 45 | 1002.0 |
| 20260506051021 | 62 | 78 | 2.6 | 2.6 | 0.00 | 0.00 | 0.00 | 50 | 1001.0 |
| 20260506050520 | 62 | 111 | 0.9 | 1.7 | 0.00 | 0.00 | 0.00 | 49 | 1001.0 |
| 20260506045020 | 60 | 138 | 0.9 | 0.9 | 0.00 | 0.00 | 0.00 | 51 | 1001.0 |
| 20260506044520 | 60 | 134 | 0.0 | 0.9 | 0.00 | 0.00 | 0.00 | 53 | 1001.0 |
| 20260506044020 | 59 | 112 | 1.7 | 1.7 | 0.00 | 0.00 | 0.00 | 52 | 1001.0 |
| 20260506043521 | 58 | 92 | 1.7 | 1.7 | 0.00 | 0.00 | 0.00 | 55 | 1001.0 |
| 20260506043020 | 58 | 82 | 0.9 | 1.7 | 0.00 | 0.00 | 0.00 | 56 | 1001.0 |
| 20260506042520 | 57 | 91 | 0.9 | 1.7 | 0.00 | 0.00 | 0.00 | 57 | 1001.0 |
| 20260506042020 | 57 | 96 | 1.7 | 2.6 | 0.00 | 0.00 | 0.00 | 58 | 1001.0 |
| 20260506041520 | 56 | 96 | 2.6 | 3.5 | 0.00 | 0.00 | 0.00 | 57 | 1001.0 |
| 20260506041020 | 57 | 112 | 0.9 | 1.7 | 0.00 | 0.00 | 0.00 | 58 | 1001.0 |
| 20260506040520 | 56 | 81 | 0.9 | 1.7 | 0.00 | 0.00 | 0.00 | 58 | 1001.0 |
| 20260506040020 | 56 | 96 | 0.9 | 1.7 | 0.00 | 0.00 | 0.00 | 59 | 1001.0 |
| 20260506035520 | 55 | 65 | 1.7 | 2.6 | 0.00 | 0.00 | 0.00 | 59 | 1001.0 |
| 20260506035020 | 54 | 90 | 4.3 | 4.3 | 0.00 | 0.00 | 0.00 | 60 | 1001.0 |
| 20260506034527 | 55 | 89 | 1.7 | 1.7 | 0.00 | 0.00 | 0.00 | 59 | 1001.0 |
| 20260506034021 | 55 | 84 | 0.9 | 1.7 | 0.00 | 0.00 | 0.00 | 60 | 1001.0 |
| 20260506033520 | 54 | 102 | 0.9 | 0.9 | 0.00 | 0.00 | 0.00 | 60 | 1001.0 |
| 20260506033020 | 54 | 111 | 0.9 | 0.9 | 0.00 | 0.00 | 0.00 | 63 | 1001.0 |
| 20260506032520 | 53 | 101 | 0.0 | 0.0 | 0.00 | 0.00 | 0.00 | 65 | 1001.0 |
| 20260506032020 | 53 | 116 | 0.0 | 0.0 | 0.00 | 0.00 | 0.00 | 67 | 1001.0 |
| 20260506031521 | 52 | 122 | 0.0 | 0.0 | 0.00 | 0.00 | 0.00 | 67 | 1001.0 |
| 20260506031020 | 52 | 115 | 0.0 | 0.0 | 0.00 | 0.00 | 0.00 | 67 | 1001.0 |
| 20260506030520 | 52 | 119 | 0.0 | 0.0 | 0.00 | 0.00 | 0.00 | 66 | 1001.0 |
| 20260506030021 | 52 | 118 | 0.0 | 0.0 | 0.00 | 0.00 | 0.00 | 66 | 1001.0 |
| 20260506025521 | 51 | 119 | 0.0 | 0.0 | 0.00 | 0.00 | 0.00 | 66 | 1001.0 |
| 20260506025020 | 52 | 116 | 0.0 | 0.0 | 0.00 | 0.00 | 0.00 | 65 | 1001.0 |
| 20260506024522 | 52 | 116 | 0.0 | 0.0 | 0.00 | 0.00 | 0.00 | 64 | 1001.0 |
| 20260506024020 | 52 | 117 | 0.0 | 0.0 | 0.00 | 0.00 | 0.00 | 64 | 1001.0 |
| 20260506023522 | 52 | 119 | 0.0 | 0.0 | 0.00 | 0.00 | 0.00 | 63 | 1001.0 |
| 20260506023020 | 52 | 116 | 0.0 | 0.0 | 0.00 | 0.00 | 0.00 | 65 | 1001.0 |
| 20260506022520 | 52 | 117 | 0.0 | 0.0 | 0.00 | 0.00 | 0.00 | 64 | 1001.0 |
| 20260506022020 | 53 | 123 | 0.0 | 0.0 | 0.00 | 0.00 | 0.00 | 65 | 1001.0 |
| 20260506021520 | 53 | 128 | 0.0 | 0.0 | 0.00 | 0.00 | 0.00 | 62 | 1001.0 |
| 20260506021022 | 53 | 135 | 0.0 | 0.0 | 0.00 | 0.00 | 0.00 | 62 | 1001.0 |
| 20260506020520 | 53 | 129 | 0.0 | 0.0 | 0.00 | 0.00 | 0.00 | 61 | 1001.0 |
| 20260506020021 | 53 | 135 | 0.0 | 0.0 | 0.00 | 0.00 | 0.00 | 61 | 1001.0 |
| 20260506015520 | 53 | 128 | 0.0 | 0.0 | 0.00 | 0.00 | 0.00 | 62 | 1001.0 |
| 20260506015022 | 53 | 126 | 0.0 | 0.0 | 0.00 | 0.00 | 0.00 | 61 | 1001.0 |
| 20260506014521 | 53 | 114 | 0.0 | 0.0 | 0.00 | 0.00 | 0.00 | 62 | 1001.0 |
| 20260506014021 | 53 | 107 | 0.0 | 0.0 | 0.00 | 0.00 | 0.00 | 63 | 1001.0 |
| 20260506013520 | 53 | 123 | 0.0 | 0.0 | 0.00 | 0.00 | 0.00 | 64 | 1001.0 |
| 20260506013020 | 53 | 121 | 0.0 | 0.0 | 0.00 | 0.00 | 0.00 | 65 | 1001.0 |
| 20260506012520 | 54 | 123 | 0.0 | 0.0 | 0.00 | 0.00 | 0.00 | 65 | 1001.0 |
| 20260506012021 | 54 | 127 | 0.0 | 0.0 | 0.00 | 0.00 | 0.00 | 63 | 1001.0 |
| 20260506011521 | 55 | 123 | 0.0 | 0.0 | 0.00 | 0.00 | 0.00 | 63 | 1001.0 |
| 20260506011021 | 55 | 134 | 0.0 | 0.0 | 0.00 | 0.00 | 0.00 | 63 | 1001.0 |
| 20260506010520 | 55 | 167 | 1.7 | 1.7 | 0.00 | 0.00 | 0.00 | 64 | 1001.0 |
| 20260506010021 | 55 | 149 | 0.9 | 1.7 | 0.00 | 0.00 | 0.00 | 66 | 1001.0 |
| 20260506005521 | 55 | 133 | 0.0 | 0.9 | 0.00 | 0.00 | 0.00 | 67 | 1001.0 |
| 20260506005021 | 55 | 136 | 0.9 | 0.9 | 0.00 | 0.00 | 0.00 | 68 | 1001.0 |
| 20260506004520 | 55 | 122 | 0.9 | 0.9 | 0.00 | 0.00 | 0.00 | 69 | 1001.0 |
| 20260506004021 | 55 | 112 | 0.0 | 0.0 | 0.00 | 0.00 | 0.00 | 70 | 1001.0 |
| 20260506003521 | 55 | 113 | 0.0 | 0.0 | 0.00 | 0.00 | 0.00 | 69 | 1001.0 |
| 20260506003021 | 55 | 105 | 0.9 | 0.9 | 0.00 | 0.00 | 0.00 | 70 | 1001.0 |
| 20260506002522 | 56 | 132 | 0.0 | 0.0 | 0.00 | 0.00 | 0.00 | 69 | 1001.0 |
| 20260506002021 | 56 | 160 | 1.7 | 1.7 | 0.00 | 0.00 | 0.00 | 68 | 1000.0 |
| 20260506001521 | 56 | 120 | 0.9 | 0.9 | 0.00 | 0.00 | 0.00 | 68 | 1000.0 |
| 20260506001020 | 56 | 99 | 1.7 | 2.6 | 0.00 | 0.00 | 0.00 | 68 | 1000.0 |
| 20260506000520 | 56 | 90 | 4.3 | 4.3 | 0.00 | 0.00 | 0.00 | 68 | 1000.0 |
| 20260506000021 | 56 | 101 | 1.7 | 1.7 | 0.00 | 0.00 | 0.00 | 68 | 1000.0 |
| 20260505235520 | 56 | 111 | 0.0 | 0.0 | 0.00 | 0.00 | 0.00 | 68 | 1000.0 |
| 20260505234535 | 56 | 135 | 1.7 | 2.6 | 0.00 | 0.00 | 0.00 | 68 | 1000.0 |
| 20260505234021 | 56 | 123 | 1.7 | 1.7 | 0.00 | 0.00 | 0.00 | 68 | 1000.0 |
| 20260505233520 | 56 | 105 | 2.6 | 2.6 | 0.00 | 0.00 | 0.00 | 68 | 1000.0 |
| 20260505233020 | 56 | 117 | 1.7 | 2.6 | 0.00 | 0.00 | 0.00 | 68 | 1000.0 |
| 20260505232521 | 56 | 118 | 0.9 | 1.7 | 0.00 | 0.00 | 0.00 | 67 | 1000.0 |
| 20260505232020 | 56 | 105 | 2.6 | 3.5 | 0.00 | 0.00 | 0.00 | 67 | 1000.0 |
| 20260505231520 | 57 | 108 | 4.3 | 4.3 | 0.00 | 0.00 | 0.00 | 66 | 1000.0 |
| 20260505231021 | 57 | 82 | 1.7 | 1.7 | 0.00 | 0.00 | 0.00 | 66 | 1000.0 |
| 20260505230520 | 57 | 122 | 6.1 | 7.0 | 0.00 | 0.00 | 0.00 | 65 | 1000.0 |
| 20260505230020 | 58 | 123 | 2.6 | 4.3 | 0.00 | 0.00 | 0.00 | 65 | 1000.0 |
| 20260505225520 | 58 | 146 | 4.3 | 4.3 | 0.00 | 0.00 | 0.00 | 64 | 1000.0 |
| 20260505225020 | 58 | 109 | 1.7 | 1.7 | 0.00 | 0.00 | 0.00 | 64 | 1000.0 |
| 20260505224520 | 58 | 75 | 3.5 | 4.3 | 0.00 | 0.00 | 0.00 | 63 | 1000.0 |
| 20260505224020 | 58 | 90 | 6.1 | 7.8 | 0.00 | 0.00 | 0.00 | 63 | 1000.0 |
| 20260505223520 | 58 | 113 | 3.5 | 4.3 | 0.00 | 0.00 | 0.00 | 62 | 1000.0 |
| 20260505223021 | 58 | 90 | 0.9 | 1.7 | 0.00 | 0.00 | 0.00 | 62 | 1000.0 |
| 20260505222521 | 59 | 111 | 5.2 | 6.1 | 0.00 | 0.00 | 0.00 | 61 | 1000.0 |
| 20260505222020 | 59 | 91 | 3.5 | 5.2 | 0.00 | 0.00 | 0.00 | 61 | 1000.0 |
| 20260505221520 | 59 | 116 | 0.9 | 0.9 | 0.00 | 0.00 | 0.00 | 61 | 1000.0 |
| 20260505221020 | 59 | 114 | 1.7 | 1.7 | 0.00 | 0.00 | 0.00 | 61 | 1000.0 |
| 20260505220520 | 59 | 126 | 2.6 | 3.5 | 0.00 | 0.00 | 0.00 | 61 | 1000.0 |
| 20260505220021 | 60 | 117 | 5.2 | 6.1 | 0.00 | 0.00 | 0.00 | 60 | 1000.0 |
| 20260505215520 | 60 | 98 | 0.9 | 0.9 | 0.00 | 0.00 | 0.00 | 60 | 1000.0 |
| 20260505215021 | 60 | 125 | 1.7 | 2.6 | 0.00 | 0.00 | 0.00 | 60 | 1000.0 |
| 20260505214520 | 61 | 143 | 3.5 | 3.5 | 0.00 | 0.00 | 0.00 | 59 | 1000.0 |
| 20260505214020 | 61 | 91 | 2.6 | 2.6 | 0.00 | 0.00 | 0.00 | 58 | 1000.0 |
| 20260505213520 | 62 | 104 | 2.6 | 3.5 | 0.00 | 0.00 | 0.00 | 58 | 1000.0 |
| 20260505213021 | 62 | 123 | 1.7 | 2.6 | 0.00 | 0.00 | 0.00 | 57 | 1000.0 |
| 20260505212520 | 62 | 120 | 1.7 | 2.6 | 0.00 | 0.00 | 0.00 | 56 | 1000.0 |
| 20260505212020 | 63 | 131 | 2.6 | 2.6 | 0.00 | 0.00 | 0.00 | 54 | 1000.0 |
| 20260505211520 | 63 | 116 | 2.6 | 2.6 | 0.00 | 0.00 | 0.00 | 52 | 1000.0 |
| 20260505211021 | 64 | 120 | 2.6 | 3.5 | 0.00 | 0.00 | 0.00 | 51 | 1000.0 |
| 20260505210521 | 64 | 174 | 1.7 | 3.5 | 0.00 | 0.00 | 0.00 | 51 | 1000.0 |
| 20260505210021 | 64 | 109 | 2.6 | 3.5 | 0.00 | 0.00 | 0.00 | 51 | 1000.0 |
| 20260505205520 | 64 | 167 | 1.7 | 2.6 | 0.00 | 0.00 | 0.00 | 51 | 1000.0 |
| 20260505205021 | 64 | 157 | 1.7 | 2.6 | 0.00 | 0.00 | 0.00 | 50 | 1000.0 |
| 20260505204520 | 65 | 128 | 1.7 | 1.7 | 0.00 | 0.00 | 0.00 | 50 | 1000.0 |
| 20260505204021 | 65 | 103 | 1.7 | 2.6 | 0.00 | 0.00 | 0.00 | 49 | 1000.0 |
| 20260505203523 | 65 | 112 | 1.7 | 1.7 | 0.00 | 0.00 | 0.00 | 48 | 1000.0 |
| 20260505203020 | 66 | 111 | 0.0 | 0.9 | 0.00 | 0.00 | 0.00 | 47 | 1000.0 |
| 20260505202522 | 67 | 137 | 1.7 | 3.5 | 0.00 | 0.00 | 0.00 | 45 | 1000.0 |
| 20260505202024 | 67 | 182 | 2.6 | 3.5 | 0.00 | 0.00 | 0.00 | 45 | 1000.0 |
| 20260505201521 | 67 | 208 | 4.3 | 4.3 | 0.00 | 0.00 | 0.00 | 45 | 1000.0 |
| 20260505201021 | 67 | 204 | 1.7 | 2.6 | 0.00 | 0.00 | 0.00 | 45 | 1000.0 |
| 20260505200521 | 67 | 112 | 0.9 | 1.7 | 0.00 | 0.00 | 0.00 | 45 | 1000.0 |
| 20260505200021 | 67 | 168 | 1.7 | 3.5 | 0.00 | 0.00 | 0.00 | 44 | 1000.0 |
| 20260505195521 | 67 | 138 | 3.5 | 3.5 | 0.00 | 0.00 | 0.00 | 44 | 1000.0 |
| 20260505195021 | 68 | 153 | 2.6 | 3.5 | 0.00 | 0.00 | 0.00 | 44 | 1000.0 |
| 20260505194521 | 68 | 135 | 4.3 | 5.2 | 0.00 | 0.00 | 0.00 | 43 | 1000.0 |
| 20260505194020 | 68 | 192 | 3.5 | 3.5 | 0.00 | 0.00 | 0.00 | 44 | 1000.0 |
| 20260505193520 | 67 | 248 | 0.9 | 1.7 | 0.00 | 0.00 | 0.00 | 45 | 1000.0 |
| 20260505193022 | 68 | 128 | 0.9 | 0.9 | 0.00 | 0.00 | 0.00 | 44 | 1000.0 |
| 20260505192520 | 68 | 166 | 1.7 | 1.7 | 0.00 | 0.00 | 0.00 | 44 | 1000.0 |
| 20260505192024 | 68 | 147 | 2.6 | 5.2 | 0.00 | 0.00 | 0.00 | 43 | 1000.0 |
| 20260505191520 | 68 | 175 | 0.9 | 1.7 | 0.00 | 0.00 | 0.00 | 44 | 1000.0 |
| 20260505191021 | 68 | 123 | 0.0 | 0.0 | 0.00 | 0.00 | 0.00 | 44 | 1000.0 |
| 20260505190521 | 68 | 183 | 2.6 | 3.5 | 0.00 | 0.00 | 0.00 | 44 | 1000.0 |
| 20260505190020 | 68 | 244 | 4.3 | 6.1 | 0.00 | 0.00 | 0.00 | 44 | 1000.0 |
| 20260505185520 | 68 | 192 | 0.9 | 0.9 | 0.00 | 0.00 | 0.00 | 44 | 1000.0 |
| 20260505185020 | 69 | 172 | 1.7 | 2.6 | 0.00 | 0.00 | 0.00 | 44 | 1000.0 |
| 20260505184520 | 69 | 135 | 0.9 | 0.9 | 0.00 | 0.00 | 0.00 | 44 | 1000.0 |
| 20260505184021 | 69 | 179 | 1.7 | 2.6 | 0.00 | 0.00 | 0.00 | 43 | 1000.0 |
| 20260505183521 | 69 | 131 | 1.7 | 1.7 | 0.00 | 0.00 | 0.00 | 42 | 1000.0 |
| 20260505183021 | 70 | 128 | 1.7 | 1.7 | 0.00 | 0.00 | 0.00 | 43 | 1000.0 |
| 20260505182520 | 70 | 151 | 1.7 | 2.6 | 0.00 | 0.00 | 0.00 | 43 | 1000.0 |
| 20260505182021 | 70 | 124 | 1.7 | 2.6 | 0.00 | 0.00 | 0.00 | 42 | 1000.0 |
| 20260505181521 | 71 | 145 | 0.9 | 1.7 | 0.00 | 0.00 | 0.00 | 42 | 1000.0 |
| 20260505181021 | 71 | 180 | 1.7 | 1.7 | 0.00 | 0.00 | 0.00 | 41 | 1000.0 |
| 20260505180521 | 71 | 157 | 1.7 | 1.7 | 0.00 | 0.00 | 0.00 | 41 | 1000.0 |
| 20260505180020 | 72 | 161 | 0.9 | 0.9 | 0.00 | 0.00 | 0.00 | 40 | 1000.0 |
| 20260505175520 | 72 | 159 | 0.9 | 0.9 | 0.00 | 0.00 | 0.00 | 39 | 1000.0 |
| 20260505175020 | 73 | 168 | 1.7 | 1.7 | 0.00 | 0.00 | 0.00 | 37 | 1000.0 |
| 20260505174521 | 73 | 169 | 2.6 | 2.6 | 0.00 | 0.00 | 0.00 | 37 | 999.0 |
| 20260505174020 | 73 | 168 | 1.7 | 1.7 | 0.00 | 0.00 | 0.00 | 35 | 999.0 |
| 20260505173520 | 74 | 164 | 0.9 | 0.9 | 0.00 | 0.00 | 0.00 | 34 | 999.0 |
| 20260505173021 | 74 | 132 | 0.9 | 0.9 | 0.00 | 0.00 | 0.00 | 33 | 999.0 |
| 20260505172520 | 75 | 154 | 0.9 | 0.9 | 0.00 | 0.00 | 0.00 | 32 | 999.0 |
| 20260505172021 | 75 | 136 | 0.9 | 0.9 | 0.00 | 0.00 | 0.00 | 31 | 999.0 |
| 20260505171520 | 76 | 96 | 0.9 | 1.7 | 0.00 | 0.00 | 0.00 | 29 | 999.0 |
| 20260505171022 | 76 | 122 | 1.7 | 1.7 | 0.00 | 0.00 | 0.00 | 29 | 999.0 |
| 20260505170520 | 78 | 167 | 1.7 | 1.7 | 0.00 | 0.00 | 0.00 | 27 | 999.0 |
| 20260505170021 | 78 | 141 | 1.7 | 1.7 | 0.00 | 0.00 | 0.00 | 25 | 999.0 |
| 20260505165521 | 79 | 128 | 0.9 | 0.9 | 0.00 | 0.00 | 0.00 | 25 | 999.0 |
| 20260505165021 | 79 | 126 | 2.6 | 3.5 | 0.00 | 0.00 | 0.00 | 24 | 999.0 |
| 20260505164521 | 79 | 131 | 1.7 | 3.5 | 0.00 | 0.00 | 0.00 | 24 | 999.0 |
| 20260505164020 | 80 | 102 | 2.6 | 3.5 | 0.00 | 0.00 | 0.00 | 24 | 999.0 |
| 20260505163521 | 80 | 108 | 1.7 | 1.7 | 0.00 | 0.00 | 0.00 | 24 | 999.0 |
| 20260505163020 | 80 | 123 | 2.6 | 2.6 | 0.00 | 0.00 | 0.00 | 24 | 999.0 |
| 20260505162520 | 80 | 118 | 2.6 | 2.6 | 0.00 | 0.00 | 0.00 | 24 | 999.0 |
| 20260505162020 | 80 | 131 | 0.9 | 1.7 | 0.00 | 0.00 | 0.00 | 24 | 999.0 |
| 20260505161521 | 81 | 122 | 0.9 | 0.9 | 0.00 | 0.00 | 0.00 | 24 | 999.0 |
| 20260505161021 | 81 | 82 | 2.6 | 2.6 | 0.00 | 0.00 | 0.00 | 23 | 999.0 |
| 20260505160521 | 81 | 110 | 2.6 | 3.5 | 0.00 | 0.00 | 0.00 | 22 | 999.0 |
| 20260505153020 | 82 | 65 | 4.3 | 6.1 | 0.00 | 0.00 | 0.00 | 20 | 999.0 |
| 20260505152520 | 83 | 92 | 1.7 | 2.6 | 0.00 | 0.00 | 0.00 | 20 | 999.0 |
| 20260505152020 | 83 | 38 | 2.6 | 3.5 | 0.00 | 0.00 | 0.00 | 20 | 999.0 |
| 20260505151523 | 84 | 114 | 0.9 | 1.7 | 0.00 | 0.00 | 0.00 | 21 | 999.0 |
| 20260505151020 | 83 | 90 | 3.5 | 3.5 | 0.00 | 0.00 | 0.00 | 20 | 999.0 |
| 20260505150521 | 84 | 106 | 3.5 | 3.5 | 0.00 | 0.00 | 0.00 | 20 | 999.0 |